TimePST,TemperatureF,Dew PointF,Humidity,Sea Level PressureIn,VisibilityMPH,Wind Direction,Wind SpeedMPH,Gust SpeedMPH,PrecipitationIn,Events,Conditions,WindDirDegrees,DateUTC
12:15 AM,57.2,57.2,100,30.20,10.0,West,3.5,-,N/A,,Unknown,270,2012-11-04 07:15:00
12:35 AM,57.2,57.2,100,30.20,7.0,Calm,Calm,-,N/A,,Unknown,0,2012-11-04 07:35:00
12:55 AM,57.2,57.2,100,30.21,10.0,ENE,3.5,-,N/A,,Unknown,70,2012-11-04 07:55:00
1:15 AM,57.2,57.2,100,30.21,10.0,Calm,Calm,-,N/A,,Unknown,0,2012-11-04 08:15:00
1:35 AM,57.2,57.2,100,30.21,10.0,Calm,Calm,-,N/A,,Unknown,0,2012-11-04 08:35:00
1:55 AM,57.2,55.4,94,30.22,10.0,Calm,Calm,-,N/A,,Unknown,0,2012-11-04 08:55:00
1:15 AM,57.2,57.2,100,30.22,7.0,Calm,Calm,-,N/A,,Unknown,0,2012-11-04 09:15:00
1:35 AM,57.2,57.2,100,30.22,5.0,Calm,Calm,-,N/A,,Unknown,0,2012-11-04 09:35:00
1:55 AM,57.2,57.2,100,30.22,10.0,SE,3.5,-,N/A,,Unknown,130,2012-11-04 09:55:00
2:15 AM,57.2,55.4,94,30.22,10.0,ESE,5.8,-,N/A,,Unknown,120,2012-11-04 10:15:00
2:35 AM,57.2,55.4,94,30.22,10.0,SE,5.8,-,N/A,,Unknown,140,2012-11-04 10:35:00
2:55 AM,57.2,57.2,100,30.22,10.0,SE,5.8,-,N/A,,Unknown,140,2012-11-04 10:55:00
3:15 AM,57.2,57.2,100,30.22,10.0,Calm,Calm,-,N/A,,Unknown,0,2012-11-04 11:15:00
3:35 AM,57.2,57.2,100,30.22,10.0,SSE,3.5,-,N/A,,Unknown,160,2012-11-04 11:35:00
3:55 AM,57.2,57.2,100,30.23,10.0,Calm,Calm,-,N/A,,Unknown,0,2012-11-04 11:55:00
4:15 AM,57.2,57.2,100,30.23,10.0,Calm,Calm,-,N/A,,Unknown,0,2012-11-04 12:15:00
4:35 AM,57.2,57.2,100,30.23,10.0,SE,3.5,-,N/A,,Unknown,130,2012-11-04 12:35:00
4:55 AM,57.2,57.2,100,30.23,10.0,ESE,3.5,-,N/A,,Unknown,120,2012-11-04 12:55:00
5:15 AM,57.2,57.2,100,30.24,10.0,ESE,4.6,-,N/A,,Unknown,120,2012-11-04 13:15:00
5:35 AM,57.2,57.2,100,30.24,10.0,SE,3.5,-,N/A,,Unknown,140,2012-11-04 13:35:00
5:55 AM,57.2,55.4,94,30.25,10.0,Calm,Calm,-,N/A,,Unknown,0,2012-11-04 13:55:00
6:15 AM,57.2,55.4,94,30.25,10.0,SE,3.5,-,N/A,,Unknown,140,2012-11-04 14:15:00
6:35 AM,57.2,57.2,100,30.25,10.0,SSE,4.6,-,N/A,,Unknown,150,2012-11-04 14:35:00
6:55 AM,57.2,57.2,100,30.26,10.0,Calm,Calm,-,N/A,,Mostly Cloudy,0,2012-11-04 14:55:00
7:15 AM,57.2,55.4,94,30.28,10.0,Calm,Calm,-,N/A,,Mostly Cloudy,0,2012-11-04 15:15:00
7:35 AM,57.2,55.4,94,30.28,10.0,SE,3.5,-,N/A,,Mostly Cloudy,130,2012-11-04 15:35:00
7:55 AM,57.2,57.2,100,30.29,10.0,SE,3.5,-,N/A,,Mostly Cloudy,140,2012-11-04 15:55:00
8:15 AM,59.0,57.2,94,30.30,10.0,Calm,Calm,-,N/A,,Mostly Cloudy,0,2012-11-04 16:15:00
8:35 AM,59.0,59.0,100,30.31,10.0,SE,4.6,-,N/A,,Mostly Cloudy,130,2012-11-04 16:35:00
8:55 AM,60.8,60.8,100,30.31,10.0,North,-9999.0,-,N/A,,Mostly Cloudy,0,2012-11-04 16:55:00
9:15 AM,64.4,60.8,88,30.31,10.0,SE,5.8,-,N/A,,Unknown,130,2012-11-04 17:15:00
9:35 AM,64.4,60.8,88,30.31,10.0,SE,4.6,-,N/A,,Scattered Clouds,140,2012-11-04 17:35:00
9:55 AM,64.4,60.8,88,30.31,10.0,ESE,8.1,-,N/A,,Scattered Clouds,110,2012-11-04 17:55:00
10:15 AM,66.2,60.8,83,30.31,10.0,ESE,6.9,-,N/A,,Scattered Clouds,120,2012-11-04 18:15:00
10:35 AM,68.0,60.8,78,30.31,10.0,ESE,6.9,-,N/A,,Scattered Clouds,120,2012-11-04 18:35:00
10:55 AM,69.8,60.8,73,30.32,10.0,ESE,5.8,-,N/A,,Scattered Clouds,120,2012-11-04 18:55:00
11:15 AM,69.8,60.8,73,30.32,10.0,Calm,Calm,-,N/A,,Scattered Clouds,0,2012-11-04 19:15:00
11:35 AM,64.4,60.8,88,30.32,4.0,WNW,3.5,-,N/A,,Scattered Clouds,300,2012-11-04 19:35:00
11:55 AM,66.2,60.8,83,30.31,7.0,NW,4.6,-,N/A,,Scattered Clouds,310,2012-11-04 19:55:00
12:15 PM,66.2,60.8,83,30.31,7.0,West,6.9,-,N/A,,Unknown,280,2012-11-04 20:15:00
12:35 PM,66.2,60.8,83,30.31,9.0,West,4.6,-,N/A,,Unknown,280,2012-11-04 20:35:00
12:55 PM,66.2,60.8,83,30.31,9.0,West,8.1,-,N/A,,Unknown,280,2012-11-04 20:55:00
1:15 PM,64.4,60.8,88,30.32,9.0,West,9.2,-,N/A,,Unknown,280,2012-11-04 21:15:00
1:35 PM,62.6,60.8,94,30.32,9.0,West,9.2,-,N/A,,Unknown,280,2012-11-04 21:35:00
1:55 PM,62.6,60.8,94,30.32,6.0,West,9.2,-,N/A,,Unknown,280,2012-11-04 21:55:00
2:15 PM,60.8,60.8,100,30.33,5.0,WNW,5.8,-,N/A,,Scattered Clouds,290,2012-11-04 22:15:00
2:35 PM,60.8,60.8,100,30.33,1.8,West,5.8,-,N/A,,Mostly Cloudy,270,2012-11-04 22:35:00
2:55 PM,60.8,60.8,100,30.33,1.5,West,4.6,-,N/A,,Mostly Cloudy,260,2012-11-04 22:55:00
3:15 PM,60.8,60.8,100,30.33,2.5,West,3.5,-,N/A,,Overcast,260,2012-11-04 23:15:00
3:35 PM,60.8,60.8,100,30.33,1.5,West,4.6,-,N/A,,Overcast,260,2012-11-04 23:35:00
3:55 PM,60.8,60.8,100,30.33,0.8,West,4.6,-,N/A,,Overcast,260,2012-11-04 23:55:00
4:15 PM,60.8,60.8,100,30.33,4.0,West,3.5,-,N/A,,Unknown,260,2012-11-05 00:15:00
4:35 PM,60.8,60.8,100,30.34,2.0,West,5.8,-,N/A,,Unknown,270,2012-11-05 00:35:00
4:55 PM,60.8,60.8,100,30.34,1.8,West,3.5,-,N/A,,Unknown,280,2012-11-05 00:55:00
5:15 PM,60.8,59.0,94,30.33,6.0,NE,3.5,-,N/A,,Unknown,50,2012-11-05 01:15:00
5:35 PM,59.0,59.0,100,30.33,0.8,Calm,Calm,-,N/A,,Unknown,0,2012-11-05 01:35:00
5:55 PM,59.0,57.2,94,30.35,2.5,West,3.5,-,N/A,,Unknown,270,2012-11-05 01:55:00
6:15 PM,57.2,57.2,100,30.36,0.5,WNW,4.6,-,N/A,,Unknown,300,2012-11-05 02:15:00
6:35 PM,59.0,59.0,100,30.36,0.5,Calm,Calm,-,N/A,,Unknown,0,2012-11-05 02:35:00
6:55 PM,59.0,59.0,100,30.36,0.2,West,3.5,-,N/A,,Unknown,270,2012-11-05 02:55:00
7:15 PM,57.2,57.2,100,30.36,0.2,West,3.5,-,N/A,,Unknown,260,2012-11-05 03:15:00
7:35 PM,59.0,59.0,100,30.35,1.0,Calm,Calm,-,N/A,,Unknown,0,2012-11-05 03:35:00
7:55 PM,59.0,59.0,100,30.36,0.8,West,4.6,-,N/A,,Unknown,270,2012-11-05 03:55:00
8:15 PM,57.2,57.2,100,30.35,0.8,Calm,Calm,-,N/A,,Unknown,0,2012-11-05 04:15:00
8:35 PM,59.0,57.2,94,30.35,0.8,Calm,Calm,-,N/A,,Unknown,0,2012-11-05 04:35:00
8:55 PM,60.8,60.8,100,30.35,1.2,Calm,Calm,-,N/A,,Unknown,0,2012-11-05 04:55:00
9:15 PM,60.8,60.8,100,30.35,1.5,SE,3.5,-,N/A,,Unknown,130,2012-11-05 05:15:00
9:35 PM,59.0,59.0,100,30.36,0.5,Calm,Calm,-,N/A,,Unknown,0,2012-11-05 05:35:00
9:55 PM,57.2,57.2,100,30.36,0.2,Calm,Calm,-,N/A,,Unknown,0,2012-11-05 05:55:00
10:15 PM,57.2,57.2,100,30.36,0.2,NNW,4.6,-,N/A,,Unknown,340,2012-11-05 06:15:00
10:35 PM,57.2,57.2,100,30.36,0.2,NNW,3.5,-,N/A,,Unknown,340,2012-11-05 06:35:00
10:55 PM,57.2,57.2,100,30.36,0.2,Calm,Calm,-,N/A,,Unknown,0,2012-11-05 06:55:00